Location: Carrer del Canonge
(41.4901°N, 2.2931°E)
Time: 13:57:54
(UTC+00:00)

Milstar 3 Cent rocket - Pass Details

Date: 18 September 2020
Orbit: 707 x 5145 km, 28.3° (Epoch: 28 October)

Event Time Altitude Azimuth Distance (km) Brightness Sun altitude
Rises 19:31:53 0° 227° (SW) 4,163 6.2 -18.7°
Reaches altitude 10° 19:36:27 10° 205° (SSW) 2,651 4.8 -19.5°
Maximum altitude 19:39:33 15° 172° (S) 2,066 3.9 -20.1°
Enters shadow 19:39:35 15° 172° (S) 2,064 3.9 -20.1°
